Tracking 31027 objects as of 18-Jul-2025
HD Live streaming from Space Station
objects crossing your sky now

STARLINK-4303

Track STARLINK-4303 now!
10-day predictions
STARLINK-4303 is classified as:


NORAD ID: 53544
Int'l Code: 2022-101T
Perigee: 546.0 km
Apogee: 547.8 km
Inclination: 53.2 °
Period: 95.4 minutes
Semi major axis: 6917 km
RCS: Unknown
Launch date: August 19, 2022
Source: United States (US)
Launch site: AIR FORCE EASTERN TEST RANGE (AFETR)
Your satellite tracking list
Your tracking list is empty




NASA's NSSDC Master Catalog

Two Line Element Set (TLE):
1 53544U 22101T   25198.00629604  .00000167  00000-0  28580-4 0  9990
2 53544  53.2181  42.1423 0001287  90.2946 269.8193 15.08834918161392
Source of the keplerian elements: AFSPC